NIMBUS 2 DEB, 39295

Orbit data source: Space-Track

NIMBUS 2 DEB, 39295 is space debris in SSO originally from a launch on Sun, 15 May 1966 UTC launched from the Air Force Western Test Range (AFWTR). Debris objects in space refer to the collection of defunct objects orbiting the Earth. Examples of debris include non-operational satellites, rocket bodies, and fragments generated from explosions, collisions, or faulty payload assembly.

Loading next visibility...
Identifier
39295, 1966-040BD
Orbit
SSO
Country
Flag of USUS
Related business
Manufacturer
Unknown
Mission
Spacecraft
Bus & Motor
Unknown
Mass
Unknown
Launch date (UTC)
1966-05-15 (60 years ago)
Launch vehicle
Unknown
Launch site
Air Force Western Test Range (AFWTR)
Object type
Payload
Rocket body
Debris
Shape & HBR
Unknown shape, 0.1 m
Radar Cross Section
Small (<0.1 m²)

Expand to show TLE details & history
Last TLE update: 2 days ago

TLE from 2 days ago
0 NIMBUS 2 DEB
1 39295U 66040BD  26261.54888931  .00001508  00000-0  24308-2 0  9990
2 39295 100.4226 202.2141 0065986 317.9597  41.6482 13.49577538632909
Epoch: 2026-09-18T13:10Z
TLE epoch observation values (Epoch: 2026-09-18T13:10:24.036Z)
Latitude
-0°
Longitude
7.14376°
Altitude
1,039.967 km
Speed
7.35 km/s
True Right ascension
13h 28m 51s
True Declination
0° 00' 00"
Sunlit
Object was in daylight at epoch
Visualization orbit readout
Latitude
Unknown
Longitude
Unknown
Altitude
Unknown
Speed
Unknown
Apparent Right ascension
Unknown
Apparent Declination
Unknown
Sunlit
N/A
Visualization observer readout
Local Sidereal Time
18:20:38
Azimuth
Unknown
Elevation
Unknown
Doppler factor
Unknown
Orbital elements
Apogee altitude
1,120.308 km
Perigee altitude
1,021.999 km
Semi-major axis
7,449.29 km
Eccentricity
0.0066
Inclination
100.4226°
RAAN
202.2141°
Arg. of periapsis
317.9597°
True anomaly
42.15381°
Mean anomaly
41.6482°
Eccentric anomaly
41.90069°
Mean motion
3.37575 °/min
Orbital period
106.64 mins
BSTAR
0.0024308
Loading maneuver chart data...
Computing Atmospheric mass density...
Loading historical data...
Loading historical data...
Loading historical data...
Loading historical data...
Loading historical data...
Loading historical data...
Loading historical data...

Documentation

Showing up to 5 results
|